EW6083 Weather Reports


time (UTC)temp
C
wind
direction
speed
KPH
gust
KPH
rain 1hr
cm
rain 24hr
cm
rain mn
cm
humidity
%
barometer
mb
20260503052948 5 0.0 0.0 0.00 0.43 0.00 66 1012.7
20260503051942 5 90 3.2 3.2 0.00 0.43 0.00 67 1012.7
20260503051016 5 90 3.2 3.2 0.00 0.46 0.00 67 1012.8
20260503045924 5 0.0 1.6 0.00 0.46 0.00 66 1013.1
20260503044918 5 135 1.6 3.2 0.00 0.46 0.00 65 1012.8
20260503043918 5 135 1.6 3.2 0.00 0.46 0.00 65 1012.9
20260503042914 5 0.0 0.0 0.00 0.46 0.00 65 1012.9
20260503041909 5 45 6.4 6.4 0.00 0.46 0.00 65 1013.1
20260503041005 4 90 1.6 3.2 0.00 0.46 0.00 64 1013.1
20260503035958 4 315 3.2 3.2 0.00 0.46 0.00 64 1013.0
20260503034953 4 0 3.2 4.8 0.00 0.46 0.00 64 1012.9
20260503033945 4 0 3.2 3.2 0.00 0.46 0.00 64 1013.0
20260503032939 4 45 3.2 3.2 0.00 0.46 0.00 65 1013.0
20260503031935 5 0 1.6 3.2 0.00 0.46 0.00 65 1012.9
20260503030931 5 338 3.2 3.2 0.00 0.46 0.00 65 1012.9
20260503025926 5 0 3.2 3.2 0.00 0.46 0.00 66 1013.0
20260503024921 5 0 3.2 3.2 0.00 0.46 0.00 69 1013.1
20260503023918 5 0 3.2 3.2 0.00 0.46 0.00 71 1012.9
20260503022912 4 0.0 1.6 0.00 0.46 0.00 72 1013.0
20260503021906 4 0 3.2 4.8 0.00 0.46 0.00 73 1013.2
20260503020906 4 45 1.6 3.2 0.00 0.46 0.00 73 1013.1
20260503015902 4 0.0 1.6 0.00 0.46 0.00 73 1013.1
20260503014917 4 90 1.6 3.2 0.00 0.46 0.00 73 1013.5
20260503013855 4 0 3.2 3.2 0.00 0.46 0.00 74 1013.2
20260503012905 4 45 1.6 3.2 0.00 0.46 0.00 73 1013.3
20260503011843 5 45 3.2 3.2 0.00 0.46 0.00 73 1013.5
20260503010839 5 45 1.6 3.2 0.00 0.46 0.00 73 1013.9
20260503005834 5 0 1.6 3.2 0.00 0.46 0.00 74 1013.5
20260503004850 5 45 1.6 3.2 0.00 0.46 0.00 75 1013.8
20260503003842 5 45 3.2 3.2 0.00 0.46 0.00 75 1013.8
20260503002822 5 90 3.2 4.8 0.00 0.46 0.00 75 1014.0
20260503001837 5 0 6.4 8.0 0.00 0.46 0.00 74 1013.8
20260503000810 5 90 6.4 9.7 0.00 0.46 0.00 73 1014.1
20260502235830 5 90 6.4 9.7 0.00 0.46 0.00 73 1014.3
20260502234847 5 90 6.4 8.0 0.00 0.46 0.00 72 1014.2
20260502233803 5 90 6.4 9.7 0.00 0.46 0.00 72 1014.3
20260502232759 5 90 6.4 8.0 0.00 0.46 0.00 71 1014.4
20260502231754 5 135 6.4 8.0 0.00 0.46 0.00 71 1014.4
20260502230749 5 90 6.4 8.0 0.00 0.46 0.00 70 1014.3
20260502225745 5 90 6.4 6.4 0.00 0.46 0.00 69 1014.3
20260502224742 5 135 4.8 6.4 0.00 0.46 0.00 68 1014.3
20260502223738 6 90 3.2 4.8 0.00 0.46 0.00 70 1014.4
20260502222731 6 90 3.2 4.8 0.00 0.46 0.00 70 1014.2
20260502221724 6 135 4.8 6.4 0.00 0.46 0.00 70 1014.5
20260502220721 6 135 3.2 3.2 0.00 0.46 0.00 70 1014.2
20260502215717 6 90 3.2 3.2 0.00 0.46 0.46 69 1014.6
20260502214734 6 90 1.6 3.2 0.00 0.46 0.46 69 1014.3
20260502213711 6 45 3.2 4.8 0.00 0.46 0.46 70 1014.5
20260502212706 6 45 3.2 4.8 0.00 0.46 0.46 70 1014.5
20260502211749 6 135 3.2 4.8 0.00 0.46 0.46 71 1014.4
20260502210658 6 90 3.2 4.8 0.00 0.46 0.46 71 1014.6
20260502205658 6 90 3.2 3.2 0.00 0.46 0.46 71 1014.5
20260502204652 6 90 1.6 3.2 0.00 0.46 0.46 71 1014.4
20260502203642 6 90 4.8 6.4 0.00 0.46 0.46 71 1014.7
20260502202643 6 158 3.2 4.8 0.00 0.46 0.46 71 1014.6
20260502201700 6 90 4.8 6.4 0.00 0.46 0.46 71 1014.4
20260502200654 6 45 3.2 3.2 0.00 0.46 0.46 70 1014.6
20260502195625 6 90 3.2 4.8 0.00 0.46 0.46 70 1014.6
20260502194623 6 315 3.2 3.2 0.00 0.46 0.46 69 1014.7
20260502193638 6 270 1.6 3.2 0.00 0.46 0.46 69 1014.6
20260502192637 6 270 4.8 8.0 0.00 0.46 0.46 69 1014.6
20260502191610 6 90 3.2 4.8 0.00 0.46 0.46 70 1014.7
20260502190610 6 45 3.2 3.2 0.00 0.46 0.46 70 1014.6
20260502185605 6 90 6.4 8.0 0.00 0.46 0.46 70 1014.5
20260502184600 6 90 3.2 4.8 0.00 0.46 0.46 70 1014.3
20260502183556 6 0.0 0.0 0.00 0.46 0.46 70 1014.5
20260502182551 7 315 4.8 6.4 0.00 0.46 0.46 70 1014.7
20260502181546 7 293 4.8 6.4 0.00 0.46 0.46 70 1014.4
20260502180542 7 270 1.6 3.2 0.00 0.46 0.46 70 1014.4
20260502170513 7 0 6.4 11.3 0.00 0.46 0.46 62 1014.5
20260502163507 8 0 6.4 8.0 0.00 0.46 0.46 57 1014.7
20260502162601 10 0 9.7 11.3 0.00 0.46 0.46 56 1014.5
20260502161556 12 90 3.2 6.4 0.00 0.46 0.46 62 1014.5
20260502160552 10 135 3.2 6.4 0.00 0.46 0.46 62 1014.5
20260502151529 8 270 4.8 6.4 0.00 0.46 0.46 67 1014.7
20260502150526 8 90 4.8 6.4 0.00 0.46 0.46 69 1014.6
20260502130537 6 270 3.2 3.2 0.00 0.46 0.46 82 1015.0
20260502123523 6 315 6.4 11.3 0.00 0.46 0.46 81 1014.7
20260502122559 6 315 6.4 8.0 0.00 0.46 0.46 81 1014.5
20260502121515 6 315 6.4 9.7 0.00 0.46 0.46 80 1014.6
20260502120512 6 293 8.0 11.3 0.00 0.46 0.46 80 1014.7
20260502115507 6 90 3.2 4.8 0.00 0.46 0.46 80 1014.3
20260502114506 6 315 6.4 8.0 0.00 0.46 0.46 81 1014.5
20260502113456 6 338 4.8 6.4 0.00 0.46 0.46 81 1014.6
20260502112516 6 0 6.4 8.0 0.00 0.46 0.46 82 1014.3
20260502111510 6 0 4.8 6.4 0.00 0.46 0.46 82 1014.4
20260502110447 6 0 6.4 6.4 0.00 0.46 0.46 83 1014.1
20260502105503 6 315 4.8 8.0 0.00 0.46 0.46 84 1014.1
20260502104436 6 315 9.7 11.3 0.03 0.46 0.46 85 1013.8
20260502103434 6 45 3.2 6.4 0.03 0.46 0.46 86 1013.8
20260502102427 6 45 6.4 8.0 0.03 0.46 0.46 86 1013.8
20260502101422 6 45 8.0 12.9 0.03 0.46 0.46 87 1013.9
20260502100417 6 45 4.8 6.4 0.05 0.46 0.46 88 1013.6
20260502091402 6 315 6.4 9.7 0.10 0.38 0.38 90 1013.3
20260502090356 6 293 4.8 6.4 0.10 0.38 0.38 90 1013.3
20260502071308 7 0 9.7 12.9 0.18 0.28 0.28 90 1012.1
20260502070305 7 0 11.3 12.9 0.20 0.28 0.28 83 1011.5
20260502065422 7 315 12.9 17.7 0.23 0.28 0.28 83 1011.8
20260502064417 8 0 9.7 11.3 0.20 0.23 0.23 82 1011.4
20260502063352 8 0 8.0 9.7 0.15 0.18 0.18 82 1011.7
20260502062350 8 315 6.4 9.7 0.10 0.13 0.13 82 1011.7
20260502061345 10 0 4.8 6.4 0.10 0.10 0.10 83 1011.7
20260502060401 10 315 3.2 3.2 0.05 0.05 0.05 82 1011.4
20260502055334 10 180 4.8 6.4 0.03 0.03 0.03 82 1011.1
20260502054329 10 225 3.2 4.8 0.03 0.03 0.03 81 1011.4